Location: Irma
(52.9170°N, 111.2330°W)
Time: 15:23:45
(UTC-06:00)

Amateur Radio Satellites - All Passes

Search period start: 17 April 2014 14:53
Search period end: 18 April 2014 14:53
Location: Irma, 52.9170°N, 111.2330°W

Satellite Date Start Highest point End Downlink Frequencies (MHz)
Time Altitude Azimuth
Oscar 19 17 Apr 15:00:19 15:04:54 32° 266° (W) 15:09:33 437.125 CW, 437.150 USB
KITSAT 1 17 Apr 15:04:13 15:08:52 17° 261° (W) 15:13:31 435.175 FM
AO-7 17 Apr 15:04:26 15:11:45 37° 49° (NE) 15:19:05 29.400 - 29.500 MHz
Saudisat 1A 17 Apr 15:06:54 15:10:47 28° 335° (NNW) 15:14:41 436.775 MHz
TMSAT-1 17 Apr 15:07:49 15:12:58 54° 67° (ENE) 15:18:08 436.925 FM
Oscar 16 17 Apr 15:08:37 15:12:55 27° 268° (W) 15:17:16 437.025 USB, Beacon 2401.1428
AO-Echo 17 Apr 15:18:57 15:23:59 46° 261° (W) 15:28:55 ?
Uosat F 17 Apr 15:35:36 15:40:18 41° 64° (ENE) 15:44:59 435.120 FM
Uribyol 2 17 Apr 15:39:58 15:44:14 26° 268° (W) 15:48:31 436.500 FM
Gurwin Techsat 1B 17 Apr 15:58:08 16:03:18 51° 260° (W) 16:08:30 435.225 FM
OPAL 17 Apr 16:12:52 16:18:00 55° 103° (ESE) 16:23:08 ?
AO-27 17 Apr 16:21:25 16:23:54 13° 275° (W) 16:26:24 436.795 MHz FM
RS-15 17 Apr 16:25:06 16:36:04 85° 230° (SW) 16:47:13 29.354 - 29.394 USB, Beacon 29.352 USB
JAS-1B 17 Apr 16:26:35 16:34:34 79° 254° (WSW) 16:41:13 435.800 - 435.900 CW/SSB
ITAMSAT 1 17 Apr 16:34:06 16:35:23 11° 278° (W) 16:36:40 435.822 SSB
Saudisat 1A 17 Apr 16:48:34 16:51:43 18° 359° (N) 16:54:51 436.775 MHz
TMSAT-1 17 Apr 16:48:39 16:53:12 29° 267° (W) 16:57:47 436.925 FM
AO-7 17 Apr 16:55:44 17:04:01 76° 252° (WSW) 17:12:22 29.400 - 29.500 MHz
ISS 17 Apr 16:59:21 17:01:18 15° 142° (SE) 17:03:16 145.800 FM
Uosat F 17 Apr 17:14:32 17:19:10 36° 263° (W) 17:23:49 435.120 FM
SO-50 17 Apr 17:16:49 17:21:08 49° 126° (SE) 17:25:31 436.795 FM
OPAL 17 Apr 17:52:10 17:56:40 31° 303° (WNW) 18:01:12 ?
HO-68 17 Apr 18:05:07 18:06:45 11° 25° (NNE) 18:08:23 435.675 MHz FM
Hamsat 17 Apr 18:07:48 18:11:50 45° 69° (ENE) 18:15:55 145.90 MHz
UOSAT-12 17 Apr 18:13:23 18:16:03 15° 111° (ESE) 18:18:44 437.025 FM, 437.400 FM
JAS-1B 17 Apr 18:20:53 18:26:04 19° 273° (W) 18:30:46 435.800 - 435.900 CW/SSB
Saudisat 1A 17 Apr 18:28:54 18:32:41 26° 23° (NNE) 18:36:26 436.775 MHz
ISS 17 Apr 18:34:15 18:37:29 46° 161° (SSE) 18:40:44 145.800 FM
JAS-2 17 Apr 18:35:49 18:41:01 39° 64° (ENE) 18:45:53 435.800 - 435.900 CW/SSB, 435.910 FM
RS-15 17 Apr 18:38:09 18:46:58 30° 255° (WSW) 18:55:57 29.354 - 29.394 USB, Beacon 29.352 USB
STRAND 1 17 Apr 18:48:51 18:51:32 14° 85° (E) 18:54:12 ?
AO-7 17 Apr 18:52:27 18:58:16 21° 274° (W) 19:04:07 29.400 - 29.500 MHz
SO-50 17 Apr 18:57:36 19:01:51 40° 327° (NNW) 19:06:10 436.795 FM
SO-67 17 Apr 19:18:56 19:22:18 47° 71° (ENE) 19:25:42 435.3500 MHz FM
Hamsat 17 Apr 19:44:37 19:48:03 24° 268° (W) 19:51:32 145.90 MHz
HO-68 17 Apr 19:46:20 19:52:16 30° 50° (NE) 19:58:14 435.675 MHz FM
UOSAT-12 17 Apr 19:50:53 19:55:29 80° 131° (SE) 20:00:12 437.025 FM, 437.400 FM
Saudisat 1A 17 Apr 20:08:26 20:12:54 83° 45° (NE) 20:17:19 436.775 MHz
ISS 17 Apr 20:10:44 20:14:05 73° 181° (S) 20:17:27 145.800 FM
JAS-2 17 Apr 20:20:48 20:26:12 40° 262° (W) 20:31:14 435.800 - 435.900 CW/SSB, 435.910 FM
STRAND 1 17 Apr 20:26:26 20:31:35 81° 105° (ESE) 20:36:41 ?
SO-50 17 Apr 20:40:10 20:43:33 20° 351° (N) 20:46:59 436.795 FM
SO-67 17 Apr 20:53:25 20:55:44 17° 270° (W) 20:58:05 435.3500 MHz FM
Oscar 11 17 Apr 21:13:17 21:16:58 28° 63° (ENE) 21:20:41 145.825 FM, Beacon 2401.500 USB
UOSAT-12 17 Apr 21:31:58 21:36:07 31° 334° (NNW) 21:40:20 437.025 FM, 437.400 FM
HO-68 17 Apr 21:32:10 21:39:20 84° 252° (WSW) 21:46:33 435.675 MHz FM
ISS 17 Apr 21:47:28 21:50:41 42° 201° (SSW) 21:53:53 145.800 FM
Saudisat 1A 17 Apr 21:48:54 21:52:00 19° 245° (WSW) 21:55:04 436.775 MHz
STRAND 1 17 Apr 22:06:29 22:10:15 21° 306° (NW) 22:13:59 ?
SO-50 17 Apr 22:21:57 22:25:35 22° 16° (NNE) 22:29:15 436.795 FM
FUNcube-1 17 Apr 22:33:26 22:37:32 53° 70° (ENE) 22:41:36 145.950 - 145.970 MHz USB
Oscar 11 17 Apr 22:48:58 22:53:03 41° 262° (W) 22:57:11 145.825 FM, Beacon 2401.500 USB
UOSAT-12 17 Apr 23:14:08 23:17:36 20° 358° (N) 23:21:06 437.025 FM, 437.400 FM
MaSat-1 17 Apr 23:21:39 23:24:24 78° 123° (ESE) 23:26:56 437.345 MHz
HO-68 17 Apr 23:23:00 23:28:08 21° 273° (W) 23:33:19 435.675 MHz FM
ISS 17 Apr 23:25:08 23:26:49 13° 219° (SW) 23:28:29 145.800 FM
SO-50 18 Apr 00:02:32 00:07:04 54° 39° (NE) 00:11:40 436.795 FM
FUNcube-1 18 Apr 00:11:10 00:14:18 20° 269° (W) 00:17:25 145.950 - 145.970 MHz USB
UOSAT-12 18 Apr 00:55:07 00:59:10 27° 22° (NNE) 01:03:13 437.025 FM, 437.400 FM
Sapphire 18 Apr 01:07:44 01:11:44 22° 109° (ESE) 01:15:45 437.095 MHz 1200 baud AX-25 AFSK
Oscar 19 18 Apr 01:29:05 01:29:31 10° 81° (E) 01:29:56 437.125 CW, 437.150 USB
Oscar 16 18 Apr 01:35:27 01:37:43 13° 84° (E) 01:39:58 437.025 USB, Beacon 2401.1428
SO-50 18 Apr 01:43:22 01:47:31 33° 239° (WSW) 01:51:43 436.795 FM
PCSat 18 Apr 01:51:18 01:56:25 45° 118° (ESE) 02:01:34 145.825 MHz
OPAL 18 Apr 01:55:53 02:00:27 35° 59° (ENE) 02:05:05 ?
Uribyol 2 18 Apr 02:07:33 02:09:53 13° 84° (E) 02:12:14 436.500 FM
UOSAT-12 18 Apr 02:35:15 02:40:00 79° 44° (NE) 02:44:44 437.025 FM, 437.400 FM
AO-27 18 Apr 02:45:34 02:49:50 25° 92° (E) 02:54:05 436.795 MHz FM
Sapphire 18 Apr 02:49:07 02:54:33 84° 309° (NW) 03:00:02 437.095 MHz 1200 baud AX-25 AFSK
ITAMSAT 1 18 Apr 02:56:34 03:01:06 30° 94° (E) 03:05:37 435.822 SSB
Oscar 19 18 Apr 03:04:50 03:10:00 59° 101° (ESE) 03:15:08 437.125 CW, 437.150 USB
Oscar 16 18 Apr 03:12:49 03:18:02 72° 104° (ESE) 03:23:14 437.025 USB, Beacon 2401.1428
TMSAT-1 18 Apr 03:18:59 03:21:33 14° 84° (E) 03:24:06 436.925 FM
AO-Echo 18 Apr 03:20:07 03:24:38 37° 96° (E) 03:29:01 ?
OPAL 18 Apr 03:34:27 03:39:16 45° 259° (W) 03:44:11 ?
PCSat 18 Apr 03:34:39 03:39:53 47° 320° (NW) 03:45:08 145.825 MHz
KITSAT 1 18 Apr 03:41:42 03:49:07 41° 114° (ESE) 03:56:33 435.175 FM
Uribyol 2 18 Apr 03:45:07 03:50:19 74° 104° (ESE) 03:55:29 436.500 FM
JAS-1B 18 Apr 04:05:59 04:09:37 17° 86° (E) 04:13:13 435.800 - 435.900 CW/SSB
Gurwin Techsat 1B 18 Apr 04:07:57 04:13:01 42° 97° (E) 04:18:01 435.225 FM
UOSAT-12 18 Apr 04:16:07 04:19:42 22° 245° (WSW) 04:23:16 437.025 FM, 437.400 FM
AO-27 18 Apr 04:24:39 04:29:45 60° 292° (WNW) 04:34:50 436.795 MHz FM
Sapphire 18 Apr 04:34:05 04:38:44 28° 332° (NNW) 04:43:25 437.095 MHz 1200 baud AX-25 AFSK
ITAMSAT 1 18 Apr 04:35:51 04:40:51 50° 294° (WNW) 04:45:50 435.822 SSB
Oscar 19 18 Apr 04:44:41 04:49:04 28° 301° (WNW) 04:53:25 437.125 CW, 437.150 USB
AO-7 18 Apr 04:50:48 04:57:33 26° 90° (E) 05:04:15 29.400 - 29.500 MHz
Oscar 16 18 Apr 04:52:53 04:56:57 24° 304° (NW) 05:01:02 437.025 USB, Beacon 2401.1428
TMSAT-1 18 Apr 04:57:06 05:02:26 75° 104° (ESE) 05:07:43 436.925 FM
AO-Echo 18 Apr 04:58:59 05:03:27 37° 297° (WNW) 05:07:47 ?
Uosat F 18 Apr 05:15:32 05:20:21 44° 99° (E) 05:25:08 435.120 FM
PCSat 18 Apr 05:20:32 05:24:37 21° 344° (NNW) 05:28:43 145.825 MHz
Uribyol 2 18 Apr 05:25:20 05:29:21 23° 304° (NW) 05:33:21 436.500 FM
KITSAT 1 18 Apr 05:36:04 05:44:11 70° 317° (NW) 05:52:20 435.175 FM
Gurwin Techsat 1B 18 Apr 05:48:05 05:52:59 38° 297° (WNW) 05:57:50 435.225 FM
JAS-1B 18 Apr 05:55:29 06:01:19 87° 288° (WNW) 06:07:03 435.800 - 435.900 CW/SSB
MaSat-1 18 Apr 06:01:54 06:03:18 13° 41° (NE) 06:04:47 437.345 MHz
AO-27 18 Apr 06:05:47 06:08:19 14° 312° (NW) 06:10:51 436.795 MHz FM
STRAND 1 18 Apr 06:10:00 06:14:43 38° 63° (ENE) 06:19:26 ?
ITAMSAT 1 18 Apr 06:17:25 06:19:16 12° 315° (NW) 06:21:07 435.822 SSB
Sapphire 18 Apr 06:20:13 06:23:56 18° 358° (N) 06:27:40 437.095 MHz 1200 baud AX-25 AFSK
TMSAT-1 18 Apr 06:37:46 06:41:53 24° 304° (NW) 06:46:00 436.925 FM
AO-7 18 Apr 06:43:03 06:51:25 89° 292° (WNW) 06:59:46 29.400 - 29.500 MHz
AO-40 18 Apr 06:53:58 09:08:49 20° 196° (SSW) 12:51:07 Beacon 2401.320
Uosat F 18 Apr 06:54:35 06:59:04 34° 299° (WNW) 07:03:31 435.120 FM
RS-15 18 Apr 06:57:22 07:06:38 32° 106° (ESE) 07:15:40 29.354 - 29.394 USB, Beacon 29.352 USB
PCSat 18 Apr 07:06:05 07:09:59 19° 10° (N) 07:13:53 145.825 MHz
JAS-2 18 Apr 07:22:44 07:26:18 18° 88° (E) 07:30:00 435.800 - 435.900 CW/SSB, 435.910 FM
Hamsat 18 Apr 07:23:22 07:27:30 41° 98° (E) 07:31:38 145.90 MHz
KITSAT 1 18 Apr 07:33:36 07:41:00 36° 344° (NNW) 07:48:23 435.175 FM
MaSat-1 18 Apr 07:39:17 07:41:59 60° 238° (WSW) 07:45:05 437.345 MHz
JAS-1B 18 Apr 07:47:14 07:51:15 20° 312° (NW) 07:55:09 435.800 - 435.900 CW/SSB
STRAND 1 18 Apr 07:49:08 07:53:56 39° 263° (W) 07:58:44 ?
Sapphire 18 Apr 08:04:44 08:09:13 25° 24° (NNE) 08:13:42 437.095 MHz 1200 baud AX-25 AFSK
SO-67 18 Apr 08:10:53 08:13:53 25° 94° (E) 08:16:51 435.3500 MHz FM
AO-7 18 Apr 08:36:25 08:43:22 31° 315° (NW) 08:50:20 29.400 - 29.500 MHz
PCSat 18 Apr 08:49:51 08:54:55 38° 35° (NE) 08:59:58 145.825 MHz
HO-68 18 Apr 08:55:10 08:58:35 14° 81° (E) 09:01:59 435.675 MHz FM
Hamsat 18 Apr 08:59:38 09:03:22 29° 297° (WNW) 09:07:07 145.90 MHz
RS-15 18 Apr 09:06:25 09:17:39 87° 131° (SE) 09:28:39 29.354 - 29.394 USB, Beacon 29.352 USB
JAS-2 18 Apr 09:06:50 09:12:06 83° 287° (WNW) 09:17:45 435.800 - 435.900 CW/SSB, 435.910 FM
KITSAT 1 18 Apr 09:31:23 09:38:42 35° 13° (NNE) 09:45:59 435.175 FM
SO-67 18 Apr 09:43:57 09:47:05 30° 293° (WNW) 09:50:11 435.3500 MHz FM
Sapphire 18 Apr 09:48:08 09:53:35 70° 48° (NE) 09:58:59 437.095 MHz 1200 baud AX-25 AFSK
AO-7 18 Apr 10:29:53 10:33:40 14° 341° (NNW) 10:37:28 29.400 - 29.500 MHz
Oscar 11 18 Apr 10:30:42 10:34:15 24° 92° (E) 10:37:48 145.825 FM, Beacon 2401.500 USB
PCSat 18 Apr 10:33:18 10:38:40 61° 238° (WSW) 10:44:00 145.825 MHz
HO-68 18 Apr 10:40:45 10:47:52 60° 103° (ESE) 10:54:57 435.675 MHz FM
JAS-2 18 Apr 10:53:12 10:56:36 18° 308° (NW) 11:00:06 435.800 - 435.900 CW/SSB, 435.910 FM
RS-15 18 Apr 11:20:29 11:31:11 51° 341° (NNW) 11:41:48 29.354 - 29.394 USB, Beacon 29.352 USB
KITSAT 1 18 Apr 11:27:35 11:35:41 64° 40° (NE) 11:43:42 435.175 FM
Sapphire 18 Apr 11:32:07 11:36:37 27° 248° (WSW) 11:41:04 437.095 MHz 1200 baud AX-25 AFSK
FUNcube-1 18 Apr 11:52:45 11:56:52 50° 100° (E) 12:01:02 145.950 - 145.970 MHz USB
Saudisat 1A 18 Apr 12:00:21 12:04:06 27° 119° (ESE) 12:07:51 436.775 MHz
Oscar 11 18 Apr 12:06:30 12:10:42 48° 291° (WNW) 12:14:54 145.825 FM, Beacon 2401.500 USB
PCSat 18 Apr 12:19:00 12:21:02 12° 258° (WSW) 12:23:04 145.825 MHz
AO-7 18 Apr 12:20:24 12:23:03 12° 9° (N) 12:25:43 29.400 - 29.500 MHz
HO-68 18 Apr 12:28:49 12:35:22 40° 304° (NW) 12:41:54 435.675 MHz FM
AO-27 18 Apr 12:33:07 12:36:03 15° 49° (NE) 12:38:59 436.795 MHz FM
ITAMSAT 1 18 Apr 12:43:36 12:46:56 18° 51° (NE) 12:50:17 435.822 SSB
Oscar 19 18 Apr 12:49:42 12:54:05 29° 59° (ENE) 12:58:30 437.125 CW, 437.150 USB
Oscar 16 18 Apr 12:57:28 13:02:04 34° 61° (ENE) 13:06:43 437.025 USB, Beacon 2401.1428
AO-Echo 18 Apr 13:02:07 13:05:40 19° 54° (NE) 13:09:10 ?
JAS-1B 18 Apr 13:13:15 13:14:09 10° 36° (NE) 13:15:02 435.800 - 435.900 CW/SSB
KITSAT 1 18 Apr 13:23:19 13:30:57 47° 244° (WSW) 13:38:32 435.175 FM
FUNcube-1 18 Apr 13:29:43 13:33:05 24° 299° (WNW) 13:36:29 145.950 - 145.970 MHz USB
Uribyol 2 18 Apr 13:30:30 13:35:12 36° 62° (ENE) 13:39:54 436.500 FM
RS-15 18 Apr 13:35:36 13:46:09 48° 14° (NNE) 13:56:42 29.354 - 29.394 USB, Beacon 29.352 USB
Saudisat 1A 18 Apr 13:39:00 13:43:26 62° 319° (NW) 13:47:53 436.775 MHz
Gurwin Techsat 1B 18 Apr 13:56:58 14:01:06 24° 56° (NE) 14:05:14 435.225 FM
AO-7 18 Apr 14:06:58 14:12:54 23° 36° (NE) 14:18:50 29.400 - 29.500 MHz
AO-27 18 Apr 14:09:33 14:14:43 68° 70° (ENE) 14:19:53 436.795 MHz FM
HO-68 18 Apr 14:17:57 14:21:16 14° 328° (NNW) 14:24:35 435.675 MHz FM
ITAMSAT 1 18 Apr 14:20:32 14:25:43 80° 72° (ENE) 14:30:56 435.822 SSB
Oscar 19 18 Apr 14:28:08 14:33:11 56° 259° (W) 14:38:18 437.125 CW, 437.150 USB
Oscar 16 18 Apr 14:36:25 14:41:21 45° 262° (W) 14:46:20 437.025 USB, Beacon 2401.1428
AO-Echo 18 Apr 14:38:36 14:43:51 89° 74° (ENE) 14:48:59 ?
